• In Italy
  • List of Countries
  • For 7 days
  • Water Temperature
  • Satellite Maps
  • Weather Map
  • Weather Widgets
  • user-avatar
    Login

    Hourly Weather Córdoba

    Today, 21 July, Friday

    Time Temperature Precipitation Wind Pressure Humidity
    00:00 +13°C° 0 mm 1 mps 726 mmHg 38%
    01:00 +13°C° 0 mm 1 mps 727 mmHg 38%
    02:00 +12°C° 0 mm 2 mps 727 mmHg 38%
    03:00 +12°C° 0 mm 2 mps 727 mmHg 39%
    04:00 +12°C° 0 mm 2 mps 727 mmHg 39%
    05:00 +12°C° 0 mm 2 mps 727 mmHg 40%
    06:00 +12°C° 0 mm 2 mps 727 mmHg 40%
    07:00 +12°C° 0 mm 2 mps 728 mmHg 40%
    08:00 +12°C° 0 mm 2 mps 728 mmHg 41%
    09:00 +14°C° 0 mm 2 mps 728 mmHg 36%
    10:00 +17°C° 0 mm 2 mps 729 mmHg 31%
    11:00 +19°C° 0 mm 2 mps 729 mmHg 26%
    12:00 +20°C° 0 mm 2 mps 728 mmHg 25%
    13:00 +21°C° 0 mm 2 mps 728 mmHg 24%
    14:00 +21°C° 0 mm 2 mps 728 mmHg 23%
    15:00 +20°C° 0 mm 2 mps 727 mmHg 26%
    16:00 +20°C° 0 mm 2 mps 727 mmHg 30%
    17:00 +19°C° 0 mm 2 mps 727 mmHg 33%
    18:00 +17°C° 0 mm 2 mps 727 mmHg 37%
    19:00 +15°C° 0 mm 2 mps 726 mmHg 41%
    20:00 +14°C° 0 mm 2 mps 726 mmHg 45%
    21:00 +13°C° 0 mm 2 mps 726 mmHg 45%
    22:00 +13°C° 0 mm 2 mps 726 mmHg 46%
    23:00 +12°C° 0 mm 2 mps 726 mmHg 47%

    Tomorrow, 22 July, Saturday

    Time Temperature Precipitation Wind Pressure Humidity
    00:00 +12°C° 0 mm 2 mps 726 mmHg 46%
    01:00 +12°C° 0 mm 2 mps 726 mmHg 46%
    02:00 +10°C° 0 mm 2 mps 725 mmHg 46%
    03:00 +10°C° 0 mm 3 mps 725 mmHg 46%
    04:00 +10°C° 0 mm 3 mps 724 mmHg 45%
    05:00 +9°C° 0 mm 3 mps 724 mmHg 45%
    06:00 +10°C° 0 mm 3 mps 724 mmHg 46%
    07:00 +10°C° 0 mm 3 mps 724 mmHg 46%
    08:00 +10°C° 0 mm 4 mps 724 mmHg 47%
    09:00 +13°C° 0 mm 5 mps 724 mmHg 42%
    10:00 +16°C° 0 mm 6 mps 724 mmHg 38%
    11:00 +20°C° 0 mm 7 mps 724 mmHg 34%
    12:00 +21°C° 0 mm 8 mps 723 mmHg 33%
    13:00 +22°C° 0 mm 8 mps 722 mmHg 32%
    14:00 +23°C° 0 mm 8 mps 721 mmHg 32%
    15:00 +22°C° 0 mm 7 mps 720 mmHg 35%
    16:00 +22°C° 0 mm 7 mps 720 mmHg 38%
    17:00 +21°C° 0 mm 6 mps 719 mmHg 41%
    18:00 +20°C° 0 mm 5 mps 720 mmHg 46%
    19:00 +18°C° 0 mm 4 mps 720 mmHg 51%
    20:00 +17°C° 0 mm 4 mps 720 mmHg 57%
    21:00 +15°C° 0 mm 4 mps 720 mmHg 59%
    22:00 +16°C° 0 mm 3 mps 720 mmHg 62%
    23:00 +14°C° 0 mm 3 mps 720 mmHg 65%

    Day after tomorrow, 23 July, Sunday

    Time Temperature Precipitation Wind Pressure Humidity
    00:00 +14°C° 0 mm 3 mps 720 mmHg 67%
    01:00 +14°C° 0 mm 3 mps 720 mmHg 69%
    02:00 +13°C° 0 mm 3 mps 719 mmHg 71%
    03:00 +14°C° 0 mm 2 mps 719 mmHg 73%
    04:00 +14°C° 0 mm 2 mps 719 mmHg 75%
    05:00 +13°C° 0 mm 2 mps 719 mmHg 77%
    06:00 +14°C° 0 mm 2 mps 719 mmHg 77%
    07:00 +14°C° 0 mm 2 mps 720 mmHg 77%
    08:00 +14°C° 0 mm 2 mps 720 mmHg 77%
    09:00 +17°C° 0 mm 2 mps 720 mmHg 68%
    10:00 +19°C° 0 mm 2 mps 721 mmHg 60%
    11:00 +22°C° 0 mm 3 mps 721 mmHg 51%
    12:00 +24°C° 0 mm 3 mps 721 mmHg 48%
    13:00 +25°C° 0 mm 3 mps 720 mmHg 45%
    14:00 +26°C° 0 mm 3 mps 719 mmHg 41%
    15:00 +25°C° 0 mm 3 mps 720 mmHg 45%
    16:00 +24°C° 0 mm 3 mps 720 mmHg 49%
    17:00 +24°C° 0 mm 2 mps 720 mmHg 52%
    18:00 +21°C° 0 mm 3 mps 720 mmHg 58%
    19:00 +19°C° 0 mm 4 mps 721 mmHg 63%
    20:00 +17°C° 0 mm 5 mps 722 mmHg 68%
    21:00 +16°C° 0 mm 5 mps 722 mmHg 71%
    22:00 +15°C° 0 mm 5 mps 723 mmHg 74%
    23:00 +14°C° 0 mm 5 mps 723 mmHg 76%

    24 July, Monday

    Time Temperature Precipitation Wind Pressure Humidity
    00:00 +14°C° 0 mm 5 mps 723 mmHg 78%
    01:00 +13°C° 0 mm 4 mps 723 mmHg 81%
    02:00 +13°C° 0 mm 4 mps 723 mmHg 83%
    03:00 +12°C° 0 mm 4 mps 723 mmHg 83%
    04:00 +12°C° 0 mm 4 mps 723 mmHg 82%
    05:00 +12°C° 0 mm 4 mps 723 mmHg 82%
    06:00 +12°C° 0 mm 3 mps 724 mmHg 81%
    07:00 +12°C° 0 mm 3 mps 724 mmHg 80%
    08:00 +12°C° 0 mm 3 mps 725 mmHg 79%
    09:00 +13°C° 0 mm 3 mps 725 mmHg 75%
    10:00 +16°C° 0 mm 3 mps 725 mmHg 71%
    11:00 +17°C° 0 mm 3 mps 726 mmHg 67%
    12:00 +18°C° 0 mm 3 mps 725 mmHg 65%
    13:00 +19°C° 0 mm 3 mps 725 mmHg 62%
    14:00 +20°C° 0 mm 3 mps 724 mmHg 60%
    15:00 +20°C° 0 mm 3 mps 724 mmHg 62%
    16:00 +19°C° 0 mm 3 mps 724 mmHg 65%
    17:00 +19°C° 0 mm 4 mps 724 mmHg 68%
    18:00 +18°C° 0 mm 3 mps 725 mmHg 72%
    19:00 +17°C° 0 mm 3 mps 725 mmHg 76%
    20:00 +16°C° 0 mm 3 mps 726 mmHg 80%
    21:00 +16°C° 0.1 mm 3 mps 726 mmHg 82%
    22:00 +14°C° 0.1 mm 3 mps 726 mmHg 84%
    23:00 +14°C° 0.1 mm 3 mps 726 mmHg 86%

    25 July, Tuesday

    Time Temperature Precipitation Wind Pressure Humidity
    00:00 +14°C° 0 mm 3 mps 726 mmHg 87%
    01:00 +14°C° 0 mm 2 mps 726 mmHg 88%
    02:00 +14°C° 0 mm 2 mps 726 mmHg 89%
    03:00 +14°C° 0 mm 2 mps 725 mmHg 90%
    04:00 +14°C° 0 mm 2 mps 725 mmHg 90%
    05:00 +14°C° 0 mm 2 mps 725 mmHg 90%
    06:00 +14°C° 0 mm 2 mps 726 mmHg 90%
    07:00 +14°C° 0 mm 2 mps 726 mmHg 90%
    08:00 +14°C° 0 mm 2 mps 726 mmHg 89%
    09:00 +16°C° 0 mm 2 mps 726 mmHg 83%
    10:00 +17°C° 0 mm 2 mps 727 mmHg 77%
    11:00 +19°C° 0 mm 2 mps 727 mmHg 71%
    12:00 +20°C° 0 mm 2 mps 726 mmHg 67%
    13:00 +20°C° 0 mm 3 mps 726 mmHg 64%
    14:00 +21°C° 0 mm 3 mps 725 mmHg 60%
    15:00 +21°C° 0 mm 3 mps 725 mmHg 63%
    16:00 +20°C° 0 mm 3 mps 725 mmHg 65%
    17:00 +20°C° 0 mm 3 mps 725 mmHg 68%
    18:00 +19°C° 0 mm 2 mps 726 mmHg 73%
    19:00 +18°C° 0 mm 2 mps 726 mmHg 79%
    20:00 +17°C° 0 mm 2 mps 726 mmHg 85%
    21:00 +16°C° 0 mm 2 mps 726 mmHg 87%
    22:00 +16°C° 0 mm 2 mps 726 mmHg 89%
    23:00 +15°C° 0 mm 2 mps 726 mmHg 91%

    26 July, Wednesday

    Time Temperature Precipitation Wind Pressure Humidity
    00:00 +15°C° 0 mm 1 mps 726 mmHg 92%
    01:00 +15°C° 0 mm 1 mps 725 mmHg 93%
    02:00 +14°C° 0 mm 1 mps 725 mmHg 94%
    03:00 +14°C° 0 mm 1 mps 725 mmHg 93%
    04:00 +14°C° 0 mm 1 mps 724 mmHg 93%
    05:00 +14°C° 0 mm 1 mps 724 mmHg 92%
    06:00 +14°C° 0 mm 1 mps 724 mmHg 91%
    07:00 +15°C° 0 mm 1 mps 724 mmHg 90%
    08:00 +15°C° 0 mm 1 mps 725 mmHg 90%
    09:00 +16°C° 0 mm 1 mps 724 mmHg 83%
    10:00 +18°C° 0 mm 2 mps 724 mmHg 76%
    11:00 +19°C° 0 mm 2 mps 724 mmHg 70%
    12:00 +21°C° 0 mm 3 mps 723 mmHg 66%
    13:00 +22°C° 0 mm 3 mps 723 mmHg 61%
    14:00 +24°C° 0 mm 3 mps 722 mmHg 57%
    15:00 +24°C° 0 mm 3 mps 722 mmHg 60%
    16:00 +22°C° 0 mm 3 mps 722 mmHg 63%
    17:00 +22°C° 0 mm 3 mps 721 mmHg 66%
    18:00 +21°C° 0 mm 3 mps 722 mmHg 73%
    19:00 +19°C° 0 mm 2 mps 722 mmHg 80%
    20:00 +18°C° 0 mm 2 mps 722 mmHg 87%
    21:00 +18°C° 0 mm 2 mps 722 mmHg 87%
    22:00 +18°C° 0 mm 2 mps 722 mmHg 87%
    23:00 +18°C° 0 mm 2 mps 721 mmHg 87%
    Show more